N9AZZ Weather Reports


time (UTC)temp
F
wind
direction
speed
knots
gust
knots
rain 1hr
in
rain 24hr
in
rain mn
in
humidity
%
barometer
mb
20260504130511 63 218 0.9 4.3 0.00 0.00 0.00 75 1011.0
20260504110509 60 0 0.0 0.0 0.00 0.00 0.00 77 1010.8
20260504100510 62 117 0.0 2.6 0.00 0.00 0.00 73 1010.6
20260504081530 62 234 0.0 2.6 0.00 0.00 0.00 70 1010.4
20260504081010 62 233 0.9 4.3 0.00 0.00 0.00 70 1010.3
20260504080510 63 0 0.0 4.3 0.00 0.00 0.00 70 1010.4
20260504050510 64 248 1.7 5.2 0.00 0.00 0.00 64 1011.3
20260504045509 64 188 2.6 7.0 0.00 0.00 0.00 64 1011.4
20260504045007 64 221 1.7 7.0 0.00 0.00 0.00 64 1011.5
20260504044541 64 324 1.7 6.1 0.00 0.00 0.00 64 1011.5
20260504044011 64 92 1.7 7.0 0.00 0.00 0.00 64 1011.5
20260504043511 64 105 1.7 8.7 0.00 0.00 0.00 63 1011.6
20260504043028 64 68 0.9 8.7 0.00 0.00 0.00 63 1011.6
20260504042511 64 109 1.7 5.2 0.00 0.00 0.00 63 1011.7
20260504042009 64 213 1.7 5.2 0.00 0.00 0.00 62 1011.8
20260504041528 64 227 1.7 4.3 0.00 0.00 0.00 62 1011.7
20260504041011 64 205 0.9 4.3 0.00 0.00 0.00 62 1011.7
20260504040512 64 226 0.9 4.3 0.00 0.00 0.00 62 1011.8
20260504040038 64 143 1.7 4.3 0.00 0.00 0.00 62 1011.8
20260504035508 64 198 1.7 4.3 0.00 0.00 0.00 61 1011.9
20260504035012 64 70 0.9 4.3 0.00 0.00 0.00 62 1011.9
20260504034528 64 185 0.9 5.2 0.00 0.00 0.00 61 1012.1
20260504034010 64 136 1.7 6.1 0.00 0.00 0.00 61 1012.0
20260504033510 64 359 1.7 7.0 0.00 0.00 0.00 61 1012.0
20260504033031 64 254 1.7 7.0 0.00 0.00 0.00 61 1012.0
20260504032509 64 173 0.9 5.2 0.00 0.00 0.00 61 1012.0
20260504032014 64 340 1.7 4.3 0.00 0.00 0.00 61 1012.1
20260504031531 63 229 0.9 5.2 0.00 0.00 0.00 61 1012.0
20260504031010 63 221 1.7 5.2 0.00 0.00 0.00 61 1012.1
20260504030510 63 155 1.7 3.5 0.00 0.00 0.00 61 1012.2
20260504030028 63 247 1.7 3.5 0.00 0.00 0.00 61 1012.1
20260504025512 63 229 0.9 3.5 0.00 0.00 0.00 61 1012.2
20260504025013 63 221 0.9 3.5 0.00 0.00 0.00 61 1012.2
20260504024528 63 212 0.9 6.1 0.00 0.00 0.00 60 1012.1
20260504024012 63 158 1.7 6.1 0.00 0.00 0.00 60 1012.2
20260504023511 63 144 1.7 3.5 0.00 0.00 0.00 60 1012.1
20260504023031 63 251 0.9 4.3 0.00 0.00 0.00 60 1012.2
20260504022514 63 0 0.9 4.3 0.00 0.00 0.00 59 1012.1
20260504022010 63 131 0.9 4.3 0.00 0.00 0.00 59 1012.2
20260504021530 63 133 0.9 2.6 0.00 0.00 0.00 59 1012.2
20260504021010 63 0 0.0 2.6 0.00 0.00 0.00 59 1012.1
20260504020511 63 150 0.9 3.5 0.00 0.00 0.00 59 1012.1
20260504020030 63 210 0.9 3.5 0.00 0.00 0.00 59 1012.2
20260504015509 63 119 0.9 4.3 0.00 0.00 0.00 57 1012.1
20260504015008 63 129 0.9 4.3 0.00 0.00 0.00 57 1012.1
20260504014530 63 245 0.9 4.3 0.00 0.00 0.00 58 1012.1
20260504014010 63 145 0.0 2.6 0.00 0.00 0.00 57 1012.1
20260504013509 64 0 0.0 2.6 0.00 0.00 0.00 57 1012.0
20260504013035 64 154 0.9 3.5 0.00 0.00 0.00 56 1012.1
20260504012513 64 143 0.9 3.5 0.00 0.00 0.00 56 1012.1
20260504012010 64 107 0.9 2.6 0.00 0.00 0.00 55 1012.1
20260504011531 65 121 0.0 2.6 0.00 0.00 0.00 55 1012.2
20260504011012 65 0 0.0 2.6 0.00 0.00 0.00 53 1012.1
20260504010516 65 0 0.0 1.7 0.00 0.00 0.00 53 1012.2
20260504010028 66 148 0.0 3.5 0.00 0.00 0.00 53 1012.1
20260504005511 66 133 0.0 3.5 0.00 0.00 0.00 52 1012.0
20260504005009 66 115 0.9 3.5 0.00 0.00 0.00 51 1012.1
20260504004528 66 240 0.9 3.5 0.00 0.00 0.00 50 1012.1
20260504004010 67 0 1.7 6.1 0.00 0.00 0.00 51 1012.1
20260504003510 67 134 0.9 6.1 0.00 0.00 0.00 50 1011.9
20260504003029 67 208 0.9 5.2 0.00 0.00 0.00 50 1012.0
20260504002512 67 224 0.0 5.2 0.00 0.00 0.00 49 1012.1
20260504002010 67 203 1.7 5.2 0.00 0.00 0.00 48 1012.1
20260504001530 68 203 1.7 6.1 0.00 0.00 0.00 48 1012.1
20260504001012 68 124 0.9 6.1 0.00 0.00 0.00 48 1012.1
20260504000514 68 220 1.7 5.2 0.00 0.00 0.00 48 1012.1
20260504000029 68 129 1.7 6.1 0.00 0.00 0.00 48 1012.1
20260503235511 68 198 1.7 6.1 0.00 0.00 0.00 49 1012.0
20260503235011 68 63 0.9 4.3 0.00 0.00 0.00 48 1012.1
20260503234529 68 262 0.9 8.7 0.00 0.00 0.00 48 1012.1
20260503234011 69 234 2.6 8.7 0.00 0.00 0.00 48 1012.1
20260503233509 69 225 0.9 5.2 0.00 0.00 0.00 48 1012.1
20260503233035 69 235 2.6 4.3 0.00 0.00 0.00 48 1012.1
20260503232511 69 215 1.7 10.4 0.00 0.00 0.00 47 1012.2
20260503232015 69 171 2.6 10.4 0.00 0.00 0.00 47 1012.0
20260503231528 69 241 2.6 10.4 0.00 0.00 0.00 46 1012.1
20260503231009 69 122 1.7 9.6 0.00 0.00 0.00 47 1012.1
20260503230510 69 227 2.6 11.3 0.00 0.00 0.00 46 1012.3
20260503230029 69 126 1.7 11.3 0.00 0.00 0.00 46 1012.2
20260503225515 69 232 3.5 10.4 0.00 0.00 0.00 43 1012.2
20260503225011 69 266 4.3 9.6 0.00 0.00 0.00 44 1012.4
20260503224533 69 274 2.6 11.3 0.00 0.00 0.00 47 1012.4
20260503224016 69 212 2.6 11.3 0.00 0.00 0.00 45 1012.5
20260503223511 69 58 4.3 11.3 0.00 0.00 0.00 47 1012.5
20260503223028 69 25 2.6 6.1 0.00 0.00 0.00 46 1012.6
20260503222513 69 238 3.5 9.6 0.00 0.00 0.00 45 1012.7
20260503222009 70 281 3.5 11.3 0.00 0.00 0.00 46 1012.6
20260503221531 70 213 3.5 11.3 0.00 0.00 0.00 47 1012.7
20260503221016 70 254 1.7 7.0 0.00 0.00 0.00 47 1012.8
20260503220511 70 79 2.6 7.0 0.00 0.00 0.00 48 1013.0
20260503220031 70 114 2.6 8.7 0.00 0.00 0.00 47 1012.9
20260503215512 70 69 3.5 8.7 0.00 0.01 0.00 47 1013.1
20260503215016 70 131 3.5 7.8 0.00 0.01 0.00 47 1013.1
20260503214528 69 232 3.5 7.8 0.00 0.01 0.00 46 1013.2
20260503214011 70 231 3.5 8.7 0.00 0.01 0.00 44 1013.4
20260503213510 70 165 1.7 9.6 0.00 0.01 0.00 48 1013.5
20260503213039 70 235 2.6 9.6 0.00 0.01 0.00 47 1013.6
20260503212510 69 219 3.5 9.6 0.00 0.01 0.00 48 1013.7
20260503212013 69 218 1.7 7.8 0.00 0.01 0.00 47 1013.9
20260503211534 70 340 2.6 6.1 0.00 0.01 0.00 47 1013.8
20260503211010 70 249 2.6 6.1 0.00 0.01 0.00 46 1013.9
20260503210509 70 112 2.6 8.7 0.00 0.01 0.00 46 1014.1
20260503210027 70 108 2.6 8.7 0.00 0.01 0.00 49 1014.2
20260503205511 70 154 2.6 7.8 0.00 0.08 0.00 47 1014.4
20260503205012 70 124 2.6 7.8 0.00 0.08 0.00 49 1014.6
20260503204532 69 223 1.7 7.8 0.00 0.08 0.00 48 1014.6
20260503204013 69 193 3.5 7.8 0.00 0.08 0.00 48 1014.8
20260503203512 70 73 2.6 7.0 0.00 0.08 0.00 46 1015.0
20260503203030 70 234 0.9 8.7 0.00 0.08 0.00 51 1015.1
20260503202511 69 162 3.5 8.7 0.00 0.08 0.00 48 1015.2
20260503202011 69 148 4.3 9.6 0.00 0.08 0.00 48 1015.3
20260503201530 69 59 3.5 9.6 0.00 0.08 0.00 48 1015.5
20260503201010 69 159 2.6 8.7 0.00 0.08 0.00 47 1015.7
20260503200510 69 303 1.7 7.0 0.00 0.08 0.00 49 1015.9
20260503200032 69 201 2.6 7.0 0.00 0.08 0.00 47 1016.0
20260503195511 69 217 1.7 7.0 0.00 0.11 0.00 48 1016.2
20260503195012 69 240 1.7 7.0 0.00 0.11 0.00 46 1016.2
20260503194534 69 223 2.6 9.6 0.00 0.11 0.00 49 1016.4
20260503194010 69 231 2.6 9.6 0.00 0.11 0.00 51 1016.4
20260503193509 69 87 2.6 9.6 0.00 0.11 0.00 48 1016.5
20260503193029 69 259 3.5 6.1 0.00 0.11 0.00 50 1016.7
20260503192512 69 234 2.6 7.8 0.00 0.11 0.00 52 1016.8
20260503192011 69 230 1.7 7.8 0.00 0.11 0.00 50 1016.8
20260503191528 68 310 2.6 7.8 0.00 0.11 0.00 52 1017.2
20260503191009 68 214 3.5 7.0 0.00 0.11 0.00 48 1017.2
20260503190511 68 86 1.7 6.1 0.00 0.11 0.00 54 1017.3
20260503190043 68 315 2.6 8.7 0.00 0.11 0.00 47 1017.3
20260503185510 68 143 2.6 8.7 0.00 0.13 0.00 48 1017.3
20260503185012 69 84 2.6 11.3 0.00 0.13 0.00 51 1017.4
20260503184531 68 171 3.5 11.3 0.00 0.13 0.00 50 1017.4
20260503184009 68 242 1.7 11.3 0.00 0.13 0.00 48 1017.7
20260503183510 68 255 3.5 11.3 0.00 0.13 0.00 46 1017.8
20260503183030 68 132 3.5 11.3 0.00 0.13 0.00 50 1017.8
20260503182512 68 247 1.7 7.8 0.00 0.13 0.00 50 1018.1
20260503182012 68 126 2.6 7.8 0.00 0.13 0.00 49 1018.2
20260503181528 68 100 2.6 7.0 0.00 0.13 0.00 50 1018.1
20260503181009 68 236 2.6 9.6 0.00 0.13 0.00 50 1018.2
20260503180509 68 236 2.6 9.6 0.00 0.13 0.00 53 1018.2
20260503180038 68 250 2.6 7.8 0.00 0.13 0.00 52 1018.4
20260503175508 68 240 1.7 7.8 0.00 0.13 0.00 52 1018.5
20260503175010 67 119 1.7 7.8 0.00 0.13 0.00 55 1018.7
20260503174529 67 225 2.6 7.0 0.00 0.13 0.00 53 1018.9
20260503174007 67 75 2.6 7.0 0.00 0.13 0.00 54 1018.9
20260503173511 67 347 2.6 7.0 0.00 0.13 0.00 56 1019.1
20260503173034 66 255 1.7 8.7 0.00 0.13 0.00 55 1019.3
20260503172514 66 311 1.7 8.7 0.00 0.13 0.00 52 1019.4
20260503172010 65 210 3.5 8.7 0.00 0.13 0.00 55 1019.6
20260503171538 65 225 2.6 7.8 0.00 0.13 0.00 52 1019.7
20260503170509 65 342 3.5 8.7 0.00 0.13 0.00 50 1019.8
20260503151012 61 105 1.7 7.0 0.00 0.13 0.00 66 1020.5
20260503150511 61 245 2.6 5.2 0.00 0.13 0.00 66 1020.7